Theta_e
345 351 360 357 355 355 355 354 356 357 359 358 360 360 361 362 361 362 362 362 361 362 361 361 362 361 362 362 363 363 363 363 363 361 360 361 360 363 363 362 360 356 360
347 353 360 358 355 355 357 358 358 359 361 361 360 360 361 361 361 362 361 361 361 362 362 362 362 361 361 360 360 359 360 362 363 360 361 360 360 362 363 359 359 356 359
347 352 356 360 358 358 359 362 359 360 361 361 361 361 362 362 361 361 361 361 361 361 362 362 362 362 362 360 362 361 361 360 362 362 360 355 352 357 357 357 357 357 355
349 350 355 362 360 359 363 361 361 361 361 361 361 361 362 362 361 361 360 361 362 361 361 362 362 362 361 361 361 359 359 357 360 364 352 351 353 361 360 359 359 358 358
347 351 355 362 361 361 361 362 361 362 362 361 361 362 361 361 362 362 361 362 363 362 363 363 363 362 362 361 360 358 354 354 355 356 347 349 351 359 360 361 361 359 358
350 354 361 362 360 362 362 361 362 362 362 362 362 362 362 362 362 362 362 363 363 363 362 363 363 361 360 360 359 357 357 360 360 350 352 357 352 360 360 358 358 358 358
350 355 357 364 363 361 361 362 362 362 361 362 362 362 362 361 361 362 362 362 363 362 363 362 360 359 359 359 358 357 359 365 348 347 349 350 354 359 357 356 354 352 350
351 354 355 363 362 362 362 362 362 361 362 364 363 362 361 361 363 363 365 363 362 361 363 362 360 358 356 353 353 352 358 363 352 349 349 348 355 357 353 351 350 351 350
351 352 353 354 359 362 362 362 363 363 362 363 363 362 362 363 363 365 366 366 362 361 359 359 359 358 357 355 354 356 358 362 345 346 348 350 357 354 352 352 351 351 352
349 348 350 352 352 353 355 362 362 362 363 362 362 361 364 363 363 362 365 365 362 362 362 360 357 355 355 355 355 354 356 356 342 345 348 349 356 353 352 351 351 352 352
341 343 349 348 348 351 352 355 360 361 362 362 361 362 361 352 353 355 360 363 361 361 361 362 361 358 357 355 356 357 353 344 339 344 346 354 356 352 352 352 352 353 355
338 343 349 349 349 351 354 352 353 354 352 352 354 354 351 350 351 353 358 361 360 360 361 361 362 361 358 351 349 356 348 346 338 341 345 355 357 353 353 353 354 357 359
340 342 343 345 340 345 350 351 351 351 350 352 351 352 350 350 351 350 350 352 352 359 352 359 358 356 355 354 348 347 348 338 337 340 350 357 358 355 356 356 358 360 362
335 337 341 341 341 348 350 349 350 348 347 345 347 346 347 341 344 345 347 348 348 348 350 350 351 352 351 352 352 348 339 336 336 340 349 358 359 358 359 360 360 362 363
336 341 340 346 343 348 350 345 346 347 346 345 345 346 350 348 346 344 346 347 348 349 348 344 346 345 343 343 344 339 334 336 336 339 343 359 360 361 360 360 362 363 364
342 342 341 341 336 346 344 339 343 347 343 342 346 344 351 344 345 348 348 343 345 347 347 346 344 348 343 339 339 337 336 337 337 338 340 348 360 361 362 363 365 365 364
343 343 337 333 339 343 342 339 341 345 344 343 349 347 351 348 346 348 343 345 347 351 348 347 346 348 340 342 338 340 339 340 342 339 340 341 349 361 363 364 365 364 363
341 344 347 346 344 340 340 342 344 347 346 347 347 350 340 344 353 347 349 344 343 352 350 347 348 344 338 337 336 339 338 342 342 343 343 342 342 345 356 364 363 362 362
342 343 343 343 345 341 342 342 343 349 348 348 347 346 344 348 352 348 348 340 348 349 347 351 347 344 336 337 340 340 340 340 341 346 343 342 345 347 349 355 361 362 365
343 343 343 345 343 347 347 346 348 346 345 346 347 350 350 353 349 350 347 337 344 345 340 342 347 347 340 342 343 339 341 341 342 343 341 347 347 348 349 349 353 357 359
343 343 343 343 346 347 344 343 342 337 347 348 350 347 336 340 351 348 348 335 336 335 333 340 341 345 346 345 343 336 338 339 336 335 333 339 341 347 351 354 357 357 354
341 341 344 345 346 344 344 344 340 339 341 347 351 338 335 339 346 351 342 334 331 330 339 338 347 350 346 346 339 341 331 335 334 339 334 338 337 340 347 352 356 356 353
339 342 344 345 346 343 345 347 347 346 347 344 343 346 344 347 352 352 348 345 343 342 341 336 342 337 333 336 347 338 331 322 327 333 334 335 335 337 341 347 355 357 354
343 347 347 347 345 347 345 342 344 344 338 341 344 347 347 350 351 354 350 348 344 338 337 337 346 331 330 339 347 346 339 329 323 321 333 335 337 336 338 344 345 358 353
346 347 347 347 347 346 346 347 342 343 341 342 344 349 349 349 349 353 351 347 343 337 336 342 349 347 347 342 347 344 338 334 334 333 327 333 337 340 340 343 340 350 355
346 348 348 347 346 348 347 349 345 343 345 344 344 348 347 347 348 353 353 351 348 345 344 345 350 351 349 338 353 351 346 342 333 335 333 329 332 337 339 338 346 347 349
Wind_Speed
5 7 12 14 15 15 15 13 12 13 12 12 11 12 12 13 13 13 14 13 13 14 13 14 14 14 15 13 13 13 14 15 16 17 16 16 15 11 11 16 15 12 14
12 10 13 13 13 13 16 15 14 13 14 13 12 12 13 14 13 13 12 12 12 13 13 14 14 14 14 13 13 13 12 12 14 17 17 16 16 18 14 15 13 11 12
13 11 11 12 14 14 16 17 16 15 13 14 13 12 13 15 14 13 14 14 13 12 13 12 13 12 12 13 13 12 12 10 11 16 18 7 8 15 14 13 12 12 11
14 9 10 14 15 15 16 18 16 16 14 14 13 12 15 14 14 15 13 14 15 14 13 12 12 11 12 12 12 10 11 10 9 12 5 7 10 13 12 12 11 11 11
14 11 10 16 16 17 17 18 16 15 15 14 14 14 15 15 15 15 15 14 16 15 13 14 12 10 13 13 10 8 7 4 2 4 5 7 5 8 10 12 10 10 10
14 11 14 16 16 16 17 17 16 15 15 15 14 14 14 15 15 16 15 16 15 14 14 13 12 10 10 12 11 6 2 5 8 11 9 10 5 11 12 11 10 9 8
13 11 11 17 15 16 16 15 16 16 15 15 15 14 15 16 15 15 16 15 15 14 13 12 10 9 7 7 6 5 4 8 8 9 8 6 5 10 10 9 8 7 5
17 14 11 17 16 16 16 15 15 14 14 14 14 15 15 15 14 13 15 16 14 14 13 12 9 7 5 3 0 2 5 6 12 10 8 5 7 9 8 7 7 6 5
15 14 10 9 12 16 15 15 14 14 15 15 14 15 15 14 15 13 13 14 14 14 13 11 9 7 5 3 5 3 4 8 8 7 9 3 8 8 7 6 5 4 3
15 14 11 7 6 6 7 15 14 14 15 14 14 15 14 13 15 14 11 11 12 11 10 10 8 5 5 6 5 4 4 10 7 8 6 4 7 7 6 5 4 3 3
8 8 10 9 5 6 6 7 10 12 13 14 12 13 11 4 6 7 8 9 9 9 9 9 7 5 5 5 7 6 2 2 5 5 4 9 7 7 6 5 5 4 4
13 11 8 7 8 7 6 5 4 5 3 4 6 6 4 5 5 6 7 8 8 7 7 6 7 8 6 3 4 8 1 2 5 5 3 9 7 8 7 6 6 6 6
14 11 6 3 4 7 5 3 3 3 3 3 6 6 5 4 3 3 2 2 2 7 3 5 5 3 5 4 4 4 3 4 4 4 6 9 8 9 8 8 7 7 6
12 15 12 5 7 6 6 5 5 3 3 3 2 6 4 3 3 3 2 3 3 3 4 4 4 5 7 8 7 6 5 4 3 4 6 11 10 11 11 9 8 7 6
15 12 14 9 9 6 5 3 2 3 3 3 3 5 4 3 4 5 5 4 4 4 3 5 4 4 4 4 6 6 8 6 6 4 3 13 12 12 12 11 10 8 7
17 15 7 9 7 4 3 6 1 2 5 4 3 3 4 3 1 2 3 3 3 4 4 4 3 0 2 1 4 3 7 6 4 6 4 6 14 13 12 12 11 8 6
13 10 9 8 7 6 6 5 3 3 2 3 4 5 3 4 1 4 3 1 2 3 1 2 1 2 3 2 1 2 4 6 5 5 4 4 5 14 12 12 9 8 6
16 15 9 9 9 6 6 4 3 2 3 5 4 5 3 2 3 3 3 3 3 4 5 4 3 2 3 4 2 1 3 3 3 6 5 6 5 3 7 14 6 6 6
16 12 8 9 12 9 8 4 5 4 7 6 5 4 5 2 4 7 8 6 3 4 8 6 4 3 4 3 4 4 4 5 5 4 5 7 6 5 5 7 7 0 13
13 14 14 8 8 7 8 5 2 2 4 4 4 4 5 5 8 10 6 2 4 5 4 2 7 1 3 4 4 5 5 4 3 3 7 7 8 4 8 5 5 4 19
15 14 15 10 7 5 2 2 1 3 2 2 4 6 6 5 8 11 2 2 3 4 4 4 5 4 3 1 2 4 2 4 6 4 2 7 12 11 7 6 9 5 4
10 12 11 11 8 5 4 2 2 3 2 3 4 4 4 6 3 8 6 3 2 4 7 7 5 2 3 4 2 2 4 5 5 5 7 9 8 7 14 18 9 10 6
12 10 13 11 8 6 6 2 1 2 3 2 2 3 3 5 6 8 7 5 3 3 2 4 3 5 3 4 5 4 3 2 2 4 7 6 8 7 6 11 10 10 1
13 10 11 12 9 7 7 4 5 4 5 4 4 3 4 5 4 4 10 6 6 3 4 5 4 2 4 3 5 3 5 5 3 4 3 4 6 10 10 6 7 8 3
16 13 11 12 8 7 6 6 5 4 3 3 3 4 4 4 3 3 8 8 6 4 4 3 0 0 3 1 2 2 5 4 6 7 4 5 6 4 4 3 8 5 4
13 14 12 12 9 8 7 6 8 6 5 3 2 5 4 3 4 4 6 6 5 4 4 4 3 2 2 0 5 1 1 2 4 3 3 3 4 5 8 7 2 3 4
Wind_Direction
142 145 147 132 130 127 117 116 115 111 114 113 99 94 93 90 91 93 94 99 103 104 106 106 109 111 110 111 106 107 107 108 104 98 91 80 80 95 102 95 86 87 88
143 149 144 141 137 131 120 117 115 113 115 113 112 110 105 103 101 93 98 106 107 112 108 104 108 109 111 114 112 107 109 108 108 106 93 87 85 77 93 89 89 90 85
137 144 144 142 130 125 124 118 111 114 117 118 117 117 111 102 99 102 101 102 107 102 108 113 113 115 110 108 101 99 101 108 123 112 103 90 88 88 91 92 94 89 86
140 139 141 140 135 130 123 116 122 120 120 117 114 114 105 107 110 103 104 106 110 118 114 118 122 113 107 104 104 115 117 132 149 100 91 89 91 94 96 97 98 96 89
130 127 140 137 133 128 121 119 122 123 119 113 112 112 109 110 104 107 110 111 108 110 116 118 115 115 112 112 102 99 114 116 211 229 106 96 84 98 107 94 91 106 86
118 125 136 134 128 127 125 125 124 121 119 116 118 112 112 108 105 108 109 108 109 110 119 119 117 115 116 114 117 117 123 165 132 93 88 88 88 93 88 90 89 87 87
123 127 133 129 129 132 129 130 129 126 122 123 118 119 112 110 112 109 109 112 111 113 120 115 116 115 123 104 121 134 68 103 118 103 94 88 91 104 100 101 105 109 107
138 129 139 132 132 131 131 129 128 127 127 125 124 121 118 115 117 116 115 120 122 117 116 122 129 131 119 99 127 46 49 69 109 104 103 102 110 113 117 119 121 120 120
126 126 129 126 135 134 135 139 134 132 131 129 132 128 124 125 122 113 110 123 120 122 126 132 149 149 150 193 228 233 42 44 117 118 115 121 127 131 133 132 130 138 153
129 130 128 130 126 126 140 139 138 142 142 139 136 137 130 133 126 122 120 125 133 131 134 146 155 165 197 218 262 303 24 57 104 110 118 135 141 145 146 150 165 181 202
69 102 130 139 136 124 117 145 148 152 149 147 146 149 145 148 135 124 141 140 141 142 155 165 160 186 235 267 277 289 324 83 119 126 122 144 157 164 168 179 202 219 232
136 112 113 102 132 142 143 148 153 176 174 168 160 165 171 181 163 146 161 174 166 166 179 185 189 193 214 242 261 262 200 234 132 124 128 154 178 184 189 204 220 236 247
138 108 131 109 310 145 147 170 167 185 194 216 210 175 197 160 155 151 176 209 193 206 198 210 221 219 233 241 230 238 136 148 155 131 150 172 198 201 211 218 229 243 256
129 137 146 209 249 191 171 179 183 195 200 173 134 146 146 142 142 183 177 239 245 240 222 204 224 199 226 238 241 248 148 148 131 128 168 188 207 217 225 231 240 251 265
136 148 164 188 159 164 155 173 139 179 196 162 110 89 66 170 189 179 193 204 213 244 234 219 211 211 226 193 195 212 153 144 148 144 177 198 213 225 232 235 238 243 264
147 159 151 195 113 80 72 61 336 292 191 149 130 110 118 145 110 128 232 92 282 171 206 187 177 259 306 349 37 71 117 139 151 157 188 205 216 228 238 247 249 248 259
132 134 152 169 135 122 122 150 190 217 285 139 150 134 74 63 101 4 31 336 241 297 155 282 48 313 164 52 38 58 91 135 167 181 198 217 237 235 238 250 262 280 288
141 151 186 163 133 177 112 174 257 287 241 157 139 118 159 197 104 72 351 302 360 25 351 341 318 77 197 147 206 229 151 168 187 178 203 212 216 228 253 251 250 276 299
152 153 156 186 152 166 181 228 215 223 163 168 149 163 183 200 61 66 36 350 20 48 36 310 329 244 203 165 207 208 206 189 201 243 237 212 224 183 221 245 211 310 41
149 153 150 170 157 167 180 201 250 126 135 149 164 135 90 61 70 62 52 356 306 42 69 326 294 41 155 186 209 202 197 208 218 3 11 340 308 168 200 191 134 143 135
135 144 153 154 171 157 146 125 181 142 85 120 122 130 113 108 116 119 255 179 253 154 33 332 310 344 340 246 84 25 275 39 92 76 350 37 11 359 307 156 119 156 202
145 141 139 156 164 166 157 177 172 151 132 169 141 144 182 136 141 126 167 155 70 58 24 3 332 354 346 1 104 59 18 354 347 9 21 26 19 331 20 350 124 154 195
161 162 146 153 165 175 177 160 220 66 71 92 150 158 203 162 190 127 173 121 106 85 46 304 256 51 29 329 10 146 69 238 324 5 23 16 18 1 3 10 30 27 327
168 166 156 157 166 186 183 181 194 172 156 202 183 169 172 205 195 165 130 135 141 147 151 248 43 84 114 301 347 16 55 133 180 30 2 319 12 358 341 32 306 206 320
161 165 164 158 170 190 176 194 195 157 161 176 168 146 186 185 196 211 134 172 174 154 185 212 249 274 93 45 340 9 83 71 59 80 315 326 15 292 315 283 247 106 193
173 168 166 167 172 188 186 181 175 159 138 105 208 180 182 184 209 230 169 158 163 194 175 225 234 118 142 141 272 35 113 174 178 139 214 220 255 268 256 254 111 179 93